Voltar ao catálogo

GAOFEN SHIPIN WEIXING

AtivoCiênciaSSO
NORAD 59680·PAYLOAD·🇨🇳 China
Este nome de satélite ainda não foi confirmado por fontes oficiais.

Lançado May 7, 2024 de Taiyuan Satellite Launch Center

Loading…

Próximas Passagens (próximas 24 horas)

TLE

AtualizadoSource: Space-Track

Época: Sep 14, 2026, 22:07 UTC

1 59680U 24085D   26257.92184888  .00012137  00000-0  32942-3 0  9994
2 59680  97.3168 333.3001 0014151  93.2744 267.0120 15.37645222131446

Acompanhe GAOFEN SHIPIN WEIXING em tempo real com AllMySat

Download on the App Store